KT2UU-13 Weather Reports


time (UTC)temp
C
wind
direction
speed
KPH
gust
KPH
rain 1hr
cm
rain 24hr
cm
rain mn
cm
humidity
%
barometer
mb
20260509105415 13 353 0.0 0.0 0.00 0.00 0.00 98 1012.8
20260509104911 13 353 0.0 0.0 0.00 0.00 0.00 98 1012.8
20260509104408 13 353 0.0 0.0 0.00 0.00 0.00 98 1012.8
20260509103906 13 353 0.0 0.0 0.00 0.00 0.00 99 1012.8
20260509103402 13 353 0.0 0.0 0.00 0.00 0.00 99 1012.8
20260509102901 13 353 0.0 0.0 0.00 0.00 0.00 99 1013.1
20260509102358 12 353 0.0 0.0 0.00 0.00 0.00 99 1012.9
20260509101854 12 353 0.0 0.0 0.00 0.00 0.00 99 1012.8
20260509101350 12 353 0.0 0.0 0.00 0.00 0.00 99 1012.6
20260509100848 12 353 0.0 0.0 0.00 0.00 0.00 99 1012.7
20260509100345 12 353 0.0 0.0 0.00 0.00 0.00 99 1012.6
20260509095841 12 353 0.0 0.0 0.00 0.00 0.00 99 1013.1
20260509095339 12 353 0.0 0.0 0.00 0.00 0.00 99 1012.9
20260509094836 12 353 0.0 0.0 0.00 0.00 0.00 99 1013.1
20260509094332 12 353 0.0 0.0 0.00 0.00 0.00 99 1013.0
20260509093830 12 353 0.0 0.0 0.00 0.00 0.00 99 1013.0
20260509093327 12 353 0.0 0.0 0.00 0.00 0.00 99 1013.1
20260509092826 12 353 0.0 0.0 0.00 0.00 0.00 99 1013.1
20260509092323 12 353 0.0 0.0 0.00 0.00 0.00 99 1013.1
20260509091821 12 353 0.0 0.0 0.00 0.00 0.00 99 1013.3
20260509091318 12 353 0.0 0.0 0.00 0.00 0.00 99 1013.2
20260509090815 12 353 0.0 1.6 0.00 0.00 0.00 99 1012.8
20260509090312 12 307 0.0 1.6 0.00 0.00 0.00 99 1013.0
20260509085809 12 187 0.0 0.0 0.00 0.00 0.00 99 1013.2
20260509085307 12 187 0.0 0.0 0.00 0.00 0.00 99 1013.1
20260509084803 12 187 0.0 0.0 0.00 0.00 0.00 99 1013.2
20260509084300 12 174 0.0 0.0 0.00 0.00 0.00 99 1013.1
20260509083758 12 171 0.0 0.0 0.00 0.00 0.00 98 1012.7
20260509083254 12 151 0.0 0.0 0.00 0.00 0.00 98 1012.8
20260509082751 12 151 0.0 0.0 0.00 0.00 0.00 99 1012.8
20260509082247 12 151 0.0 0.0 0.00 0.00 0.00 99 1012.7
20260509081744 12 223 0.0 0.0 0.00 0.00 0.00 99 1012.6
20260509081242 12 223 0.0 0.0 0.00 0.00 0.00 99 1012.6
20260509080740 12 223 0.0 0.0 0.00 0.00 0.00 99 1013.0
20260509080237 12 224 0.0 0.0 0.00 0.00 0.00 99 1013.1
20260509075736 12 224 0.0 0.0 0.00 0.00 0.00 99 1013.2
20260509075233 11 224 0.0 0.0 0.00 0.00 0.00 99 1013.3
20260509074729 12 224 0.0 0.0 0.00 0.00 0.00 99 1013.1
20260509074227 12 224 0.0 0.0 0.00 0.00 0.00 99 1013.0
20260509073723 11 224 0.0 0.0 0.00 0.00 0.00 99 1013.1
20260509073220 11 224 0.0 0.0 0.00 0.00 0.00 99 1013.0
20260509072716 12 224 0.0 0.0 0.00 0.00 0.00 99 1012.8
20260509072213 12 224 0.0 0.0 0.00 0.00 0.00 99 1012.8
20260509071710 12 224 0.0 0.0 0.00 0.00 0.00 99 1012.9
20260509071207 11 224 0.0 0.0 0.00 0.00 0.00 99 1013.3
20260509070704 11 224 0.0 0.0 0.00 0.00 0.00 99 1013.2
20260509070200 11 224 0.0 0.0 0.00 0.00 0.00 99 1013.1
20260509065656 11 264 0.0 0.0 0.00 0.00 0.00 99 1013.2
20260509065153 11 264 0.0 0.0 0.00 0.00 0.00 99 1013.0
20260509064650 11 264 0.0 0.0 0.00 0.00 0.00 99 1013.1
20260509064147 11 264 0.0 0.0 0.00 0.00 0.00 99 1013.0
20260509063644 11 264 0.0 0.0 0.00 0.00 0.00 99 1013.1
20260509063140 11 264 0.0 0.0 0.00 0.00 0.00 99 1013.4
20260509062638 11 278 0.0 1.6 0.00 0.00 0.00 98 1013.2
20260509062135 11 9 0.0 0.0 0.00 0.00 0.00 98 1013.2
20260509061631 11 9 0.0 0.0 0.00 0.00 0.00 98 1013.3
20260509061129 11 9 0.0 0.0 0.00 0.00 0.00 98 1013.5
20260509060627 11 9 0.0 0.0 0.00 0.00 0.00 98 1013.5
20260509060122 12 9 0.0 0.0 0.00 0.00 0.00 98 1013.4
20260509055618 11 9 0.0 0.0 0.00 0.00 0.00 98 1013.8
20260509055114 11 9 0.0 0.0 0.00 0.00 0.00 98 1013.9
20260509054611 11 8 0.0 0.0 0.00 0.00 0.00 97 1014.1
20260509054109 11 21 0.0 0.0 0.00 0.00 0.00 97 1014.3
20260509053607 12 8 0.0 0.0 0.00 0.00 0.00 97 1014.5
20260509053104 12 8 0.0 0.0 0.00 0.00 0.00 97 1014.5
20260509052602 12 8 0.0 0.0 0.00 0.00 0.00 97 1014.4
20260509052059 12 8 0.0 0.0 0.00 0.00 0.00 97 1014.5
20260509051557 12 8 0.0 0.0 0.00 0.00 0.00 96 1014.5
20260509051054 12 8 0.0 0.0 0.00 0.00 0.00 96 1014.7
20260509050550 12 8 0.0 0.0 0.00 0.00 0.00 95 1014.3
20260509050047 12 8 0.0 0.0 0.00 0.00 0.00 95 1014.4
20260509045545 12 21 0.0 0.0 0.00 0.00 0.00 94 1014.3
20260509045041 13 8 0.0 0.0 0.00 0.00 0.00 94 1014.3
20260509044539 13 8 0.0 0.0 0.00 0.00 0.00 94 1014.1
20260509044036 13 8 0.0 0.0 0.00 0.00 0.00 94 1014.1
20260509043532 13 8 0.0 0.0 0.00 0.00 0.00 94 1014.0
20260509043028 13 8 0.0 0.0 0.00 0.00 0.00 93 1014.0
20260509042524 13 8 0.0 0.0 0.00 0.00 0.00 94 1014.1
20260509042021 13 8 0.0 0.0 0.00 0.00 0.00 93 1014.1
20260509041517 13 9 0.0 0.0 0.00 0.00 0.00 94 1014.4
20260509041015 13 9 0.0 0.0 0.00 0.00 0.00 93 1014.4
20260509040513 13 9 0.0 0.0 0.00 0.00 0.00 93 1014.6
20260509040005 13 11 0.0 0.0 0.00 0.00 0.00 93 1014.8
20260509035501 13 11 0.0 0.0 0.00 0.00 0.00 93 1014.8
20260509034957 13 24 0.0 0.0 0.00 0.00 0.00 93 1014.9
20260509034456 13 11 0.0 0.0 0.00 0.00 0.00 93 1014.9
20260509033952 13 11 0.0 0.0 0.00 0.00 0.00 93 1014.7
20260509033449 13 11 0.0 0.0 0.00 0.00 0.00 93 1014.7
20260509032946 13 11 0.0 0.0 0.00 0.00 0.00 93 1015.0
20260509032443 13 11 0.0 0.0 0.00 0.00 0.00 93 1015.1
20260509031941 13 11 0.0 0.0 0.00 0.00 0.00 93 1015.0
20260509031438 13 11 0.0 0.0 0.00 0.00 0.00 93 1015.1
20260509030935 13 11 0.0 0.0 0.00 0.00 0.00 93 1015.1
20260509030433 13 11 0.0 0.0 0.00 0.00 0.00 93 1015.1
20260509025930 13 11 0.0 0.0 0.00 0.00 0.00 92 1015.0
20260509025426 13 11 0.0 0.0 0.00 0.00 0.00 92 1015.1
20260509024921 13 11 0.0 0.0 0.00 0.00 0.00 92 1015.6
20260509024417 13 11 0.0 0.0 0.00 0.00 0.00 92 1015.5
20260509023914 13 11 0.0 0.0 0.00 0.00 0.00 92 1015.5
20260509023412 13 11 0.0 0.0 0.00 0.00 0.00 92 1015.4
20260509022908 13 11 0.0 0.0 0.00 0.00 0.00 92 1015.4
20260509022405 13 11 0.0 0.0 0.00 0.00 0.00 92 1015.5
20260509021903 13 11 0.0 0.0 0.00 0.00 0.00 91 1015.2
20260509021400 13 11 0.0 0.0 0.00 0.00 0.00 91 1015.2
20260509020857 14 11 0.0 0.0 0.00 0.00 0.00 90 1015.0
20260509020355 14 11 0.0 0.0 0.00 0.00 0.00 90 1015.1
20260509015852 14 11 0.0 0.0 0.00 0.00 0.00 90 1014.9
20260509015350 14 11 0.0 0.0 0.00 0.00 0.00 90 1014.9
20260509014847 14 11 0.0 0.0 0.00 0.00 0.00 89 1015.0
20260509014343 14 11 0.0 0.0 0.00 0.00 0.00 89 1014.9
20260509013840 14 11 0.0 0.0 0.00 0.00 0.00 89 1015.0
20260509013336 14 11 0.0 0.0 0.00 0.00 0.00 89 1015.0
20260509012832 15 11 0.0 0.0 0.00 0.00 0.00 89 1014.9
20260509012329 15 11 0.0 0.0 0.00 0.00 0.00 89 1014.7
20260509011827 15 11 0.0 0.0 0.00 0.00 0.00 89 1014.7
20260509011324 15 11 0.0 0.0 0.00 0.00 0.00 89 1014.5
20260509010822 15 11 0.0 0.0 0.00 0.00 0.00 88 1014.8
20260509010319 15 11 0.0 0.0 0.00 0.00 0.00 87 1014.8
20260509005816 15 11 0.0 0.0 0.00 0.00 0.00 87 1014.9
20260509005314 15 11 0.0 0.0 0.00 0.00 0.00 86 1014.9
20260509004813 15 11 0.0 0.0 0.00 0.00 0.00 88 1015.0
20260509004305 15 11 0.0 0.0 0.00 0.00 0.00 88 1014.7
20260509003803 16 11 0.0 0.0 0.00 0.00 0.00 88 1014.8
20260509003301 16 11 0.0 0.0 0.00 0.00 0.00 88 1015.0
20260509002757 16 11 0.0 0.0 0.00 0.00 0.00 88 1014.7
20260509002255 16 11 0.0 0.0 0.00 0.00 0.00 88 1014.7
20260509001752 16 11 0.0 0.0 0.00 0.00 0.00 88 1014.7
20260509001248 16 11 0.0 0.0 0.00 0.00 0.00 88 1014.8
20260509000746 16 11 0.0 0.0 0.00 0.00 0.00 87 1014.7
20260509000243 16 11 0.0 0.0 0.00 0.00 0.00 86 1014.6
20260508235740 17 21 0.0 0.0 0.00 0.00 0.00 85 1014.7
20260508235236 17 11 0.0 0.0 0.00 0.00 0.00 85 1014.8
20260508234734 17 11 0.0 0.0 0.00 0.00 0.00 84 1014.5
20260508234229 17 11 0.0 0.0 0.00 0.00 0.00 83 1014.6
20260508233724 17 11 0.0 0.0 0.00 0.00 0.00 82 1014.7
20260508233221 17 11 0.0 0.0 0.00 0.00 0.00 81 1014.6
20260508232719 18 11 0.0 0.0 0.00 0.00 0.00 79 1014.7
20260508232215 18 11 0.0 0.0 0.00 0.00 0.00 76 1014.7
20260508231713 18 21 0.0 0.0 0.00 0.00 0.00 74 1014.5
20260508231210 18 21 0.0 0.0 0.00 0.00 0.00 73 1014.6
20260508230707 18 11 0.0 0.0 0.00 0.00 0.00 70 1014.6
20260508230203 19 11 0.0 0.0 0.00 0.00 0.00 69 1014.6
20260508225701 19 11 0.0 0.0 0.00 0.00 0.00 70 1014.8
20260508225156 19 11 0.0 0.0 0.00 0.00 0.00 67 1014.6
20260508224655 19 11 0.0 0.0 0.00 0.00 0.00 65 1014.8
20260508224152 19 11 0.0 0.0 0.00 0.00 0.00 67 1014.8
20260508223649 19 11 0.0 0.0 0.00 0.00 0.00 65 1014.9
20260508223147 19 11 0.0 0.0 0.00 0.00 0.00 65 1014.7
20260508222644 19 11 0.0 0.0 0.00 0.00 0.00 62 1015.0
20260508222141 19 11 0.0 0.0 0.00 0.00 0.00 61 1015.0
20260508221637 19 11 0.0 0.0 0.00 0.00 0.00 60 1015.0
20260508221133 20 11 0.0 0.0 0.00 0.00 0.00 58 1015.0
20260508220630 20 11 0.0 0.0 0.00 0.00 0.00 62 1015.0
20260508220126 20 11 0.0 0.0 0.00 0.00 0.00 64 1015.0
20260508215623 20 11 0.0 0.0 0.00 0.00 0.00 63 1014.9
20260508215120 20 10 0.0 0.0 0.00 0.00 0.00 62 1015.1
20260508214617 20 10 0.0 0.0 0.00 0.00 0.00 61 1014.9
20260508214114 20 10 0.0 0.0 0.00 0.00 0.00 60 1015.1
20260508213611 21 10 0.0 0.0 0.00 0.00 0.00 61 1014.9
20260508213107 21 10 0.0 0.0 0.00 0.00 0.00 59 1014.9
20260508212603 20 10 0.0 0.0 0.00 0.00 0.00 59 1014.7
20260508212100 21 12 0.0 0.0 0.00 0.00 0.00 54 1014.9
20260508211555 21 9 1.6 1.6 0.00 0.00 0.00 59 1014.7
20260508211052 21 6 0.0 0.0 0.00 0.00 0.00 56 1014.6
20260508210548 21 1 0.0 0.0 0.00 0.00 0.00 54 1015.0
20260508210046 21 349 0.0 0.0 0.00 0.00 0.00 53 1014.8
20260508205543 21 8 0.0 0.0 0.00 0.00 0.00 55 1014.9
20260508205039 21 11 1.6 3.2 0.00 0.00 0.00 50 1015.0
20260508204536 21 10 0.0 0.0 0.00 0.00 0.00 53 1014.8
20260508204031 21 8 0.0 0.0 0.00 0.00 0.00 51 1015.2
20260508203528 21 5 0.0 1.6 0.00 0.00 0.00 49 1014.9
20260508203024 22 1 0.0 1.6 0.00 0.00 0.00 48 1015.3
20260508202521 22 301 0.0 1.6 0.00 0.00 0.00 45 1015.3
20260508202018 21 15 0.0 3.2 0.00 0.00 0.00 49 1015.1
20260508201514 22 78 0.0 0.0 0.00 0.00 0.00 49 1015.3
20260508201011 21 112 0.0 0.0 0.00 0.00 0.00 52 1015.3
20260508200508 21 4 0.0 1.6 0.00 0.00 0.00 51 1015.0
20260508200004 21 14 0.0 0.0 0.00 0.00 0.00 52 1015.1
20260508195501 21 1 3.2 4.8 0.00 0.00 0.00 48 1015.2
20260508194956 22 150 0.0 0.0 0.00 0.00 0.00 51 1015.1
20260508194454 22 139 0.0 0.0 0.00 0.00 0.00 51 1015.2
20260508193951 22 176 0.0 0.0 0.00 0.00 0.00 45 1015.4
20260508193447 22 213 0.0 1.6 0.00 0.00 0.00 43 1015.5
20260508192944 21 193 0.0 0.0 0.00 0.00 0.00 45 1015.5
20260508192441 21 135 1.6 3.2 0.00 0.00 0.00 49 1015.8
20260508191938 21 149 0.0 1.6 0.00 0.00 0.00 49 1016.1
20260508191435 21 92 0.0 3.2 0.00 0.00 0.00 48 1016.1
20260508190931 21 136 1.6 3.2 0.00 0.00 0.00 46 1016.1
20260508190429 21 0 0.0 1.6 0.00 0.00 0.00 48 1016.1
20260508185925 21 226 0.0 3.2 0.00 0.00 0.00 50 1016.3
20260508185423 22 270 0.0 3.2 0.00 0.00 0.00 46 1016.2
20260508184920 22 184 1.6 1.6 0.00 0.00 0.00 48 1016.3
20260508184417 21 254 0.0 3.2 0.00 0.00 0.00 48 1016.4
20260508183914 21 113 0.0 1.6 0.00 0.00 0.00 50 1016.3
20260508183410 22 90 0.0 3.2 0.00 0.00 0.00 47 1016.4
20260508182905 22 58 0.0 3.2 0.00 0.00 0.00 45 1016.3
20260508182403 21 332 0.0 3.2 0.00 0.00 0.00 43 1016.5
20260508181858 21 350 0.0 0.0 0.00 0.00 0.00 46 1016.7
20260508181355 21 15 0.0 4.8 0.00 0.00 0.00 46 1016.7
20260508180852 21 341 3.2 4.8 0.00 0.00 0.00 44 1016.6
20260508180349 21 5 0.0 4.8 0.00 0.00 0.00 43 1016.8
20260508175845 21 237 1.6 4.8 0.00 0.00 0.00 48 1016.8
20260508175342 21 101 0.0 3.2 0.00 0.00 0.00 49 1016.9
20260508174840 21 43 1.6 1.6 0.00 0.00 0.00 45 1017.0
20260508174337 21 191 0.0 0.0 0.00 0.00 0.00 47 1016.9
20260508173834 20 209 0.0 1.6 0.00 0.00 0.00 45 1017.0
20260508173331 20 357 0.0 4.8 0.00 0.00 0.00 43 1016.9
20260508172826 20 137 0.0 1.6 0.00 0.00 0.00 45 1017.1
20260508172324 20 127 0.0 3.2 0.00 0.00 0.00 43 1017.4
20260508171820 21 129 3.2 4.8 0.00 0.00 0.00 46 1017.3
20260508171316 20 213 1.6 3.2 0.00 0.00 0.00 40 1017.5
20260508170813 20 4 0.0 1.6 0.00 0.00 0.00 45 1017.4
20260508170312 20 16 0.0 1.6 0.00 0.00 0.00 49 1017.5
20260508165808 20 165 3.2 4.8 0.00 0.00 0.00 47 1017.5
20260508165307 19 343 0.0 3.2 0.00 0.00 0.00 48 1017.6
20260508164801 20 265 0.0 3.2 0.00 0.00 0.00 45 1017.7
20260508164258 20 331 0.0 3.2 0.00 0.00 0.00 47 1017.7
20260508163756 20 92 0.0 3.2 0.00 0.00 0.00 48 1018.0
20260508163254 20 172 1.6 3.2 0.00 0.00 0.00 46 1018.1
20260508162749 19 5 0.0 0.0 0.00 0.00 0.00 47 1018.0
20260508162246 19 26 0.0 1.6 0.00 0.00 0.00 58 1018.1
20260508161743 19 356 0.0 3.2 0.00 0.00 0.00 49 1018.3
20260508161240 19 125 1.6 3.2 0.00 0.00 0.00 52 1018.4
20260508160738 18 36 0.0 3.2 0.00 0.00 0.00 50 1018.4
20260508160237 18 142 0.0 1.6 0.00 0.00 0.00 53 1018.5
20260508155732 19 353 1.6 3.2 0.00 0.00 0.00 49 1018.6
20260508155230 18 123 0.0 1.6 0.00 0.00 0.00 56 1018.5
20260508154726 18 359 3.2 4.8 0.00 0.00 0.00 52 1018.7
20260508154224 18 14 0.0 1.6 0.00 0.00 0.00 52 1018.6
20260508153720 18 320 1.6 6.4 0.00 0.00 0.00 49 1018.7
20260508153217 18 20 1.6 3.2 0.00 0.00 0.00 52 1018.8
20260508152714 17 223 0.0 1.6 0.00 0.00 0.00 60 1018.8
20260508152210 18 8 0.0 1.6 0.00 0.00 0.00 59 1018.8
20260508151707 17 9 0.0 4.8 0.00 0.00 0.00 57 1018.7
20260508151203 18 348 1.6 3.2 0.00 0.00 0.00 57 1018.7
20260508150700 17 286 0.0 1.6 0.00 0.00 0.00 60 1019.1
20260508150157 17 201 1.6 3.2 0.00 0.00 0.00 61 1018.9
20260508145652 17 19 3.2 11.3 0.00 0.00 0.00 59 1018.9
20260508145149 17 222 0.0 0.0 0.00 0.00 0.00 66 1019.0
20260508144646 16 222 0.0 3.2 0.00 0.00 0.00 65 1019.1
20260508144144 17 222 0.0 0.0 0.00 0.00 0.00 67 1019.2
20260508143641 16 222 0.0 0.0 0.00 0.00 0.00 68 1019.1
20260508143138 17 222 0.0 0.0 0.00 0.00 0.00 65 1019.0
20260508142634 16 223 1.6 1.6 0.00 0.00 0.00 71 1019.1
20260508142131 15 222 1.6 3.2 0.00 0.00 0.00 71 1019.0
20260508141628 16 222 1.6 3.2 0.00 0.00 0.00 69 1019.0
20260508141126 15 222 1.6 1.6 0.00 0.00 0.00 72 1019.2
20260508140623 15 217 1.6 1.6 0.00 0.00 0.00 76 1019.1
20260508140120 15 217 0.0 3.2 0.00 0.00 0.00 78 1018.9
20260508135614 15 219 0.0 0.0 0.00 0.00 0.00 80 1018.8
20260508135110 14 217 1.6 3.2 0.00 0.00 0.00 79 1018.9
20260508134608 15 219 0.0 0.0 0.00 0.00 0.00 79 1019.0
20260508134104 15 198 0.0 1.6 0.00 0.00 0.00 75 1019.2
20260508133601 15 219 0.0 0.0 0.00 0.00 0.00 76 1019.2
20260508133059 15 220 0.0 0.0 0.00 0.00 0.00 78 1019.0
20260508132551 14 217 1.6 1.6 0.00 0.00 0.00 82 1019.1
20260508132047 15 219 0.0 1.6 0.00 0.00 0.00 79 1018.9
20260508131542 14 197 0.0 1.6 0.00 0.00 0.00 81 1019.0
20260508131034 14 218 0.0 0.0 0.00 0.00 0.00 79 1019.0
20260508130531 14 219 1.6 1.6 0.00 0.00 0.00 79 1019.2
20260508130027 14 218 0.0 0.0 0.00 0.00 0.00 79 1019.3
20260508125523 14 218 0.0 0.0 0.00 0.00 0.00 80 1019.4
20260508125021 12 217 0.0 1.6 0.00 0.00 0.00 84 1019.3
20260508124519 13 335 0.0 0.0 0.00 0.00 0.00 82 1019.3
20260508124016 12 335 0.0 3.2 0.00 0.00 0.00 84 1019.4
20260508123514 12 326 0.0 3.2 0.00 0.00 0.00 85 1019.1
20260508123010 12 237 0.0 1.6 0.00 0.00 0.00 86 1019.0
20260508122508 12 236 0.0 0.0 0.00 0.00 0.00 89 1019.1
20260508122004 12 253 0.0 0.0 0.00 0.00 0.00 89 1019.1
20260508121502 11 248 0.0 0.0 0.00 0.00 0.00 91 1019.1
20260508121000 11 276 0.0 0.0 0.00 0.00 0.00 94 1019.0
20260508120457 10 277 0.0 0.0 0.00 0.00 0.00 96 1018.8
20260508115955 10 279 0.0 0.0 0.00 0.00 0.00 97 1018.7
20260508115453 10 279 0.0 0.0 0.00 0.00 0.00 98 1018.8
20260508114949 10 279 0.0 0.0 0.00 0.00 0.00 98 1018.5
20260508114446 9 279 0.0 0.0 0.00 0.00 0.00 99 1018.5
20260508113942 9 279 0.0 0.0 0.00 0.00 0.00 99 1018.3
20260508113440 8 279 0.0 0.0 0.00 0.00 0.00 99 1018.2
20260508112937 8 279 0.0 0.0 0.00 0.00 0.00 99 1017.9
20260508112434 8 279 0.0 0.0 0.00 0.00 0.00 99 1017.9
20260508111930 8 279 0.0 0.0 0.00 0.00 0.00 99 1017.8
20260508111428 8 279 0.0 0.0 0.00 0.00 0.00 99 1017.6
20260508110925 8 279 0.0 0.0 0.00 0.00 0.00 99 1017.6
20260508110423 8 279 0.0 0.0 0.00 0.00 0.00 99 1017.8
20260508105922 8 279 0.0 0.0 0.00 0.00 0.00 99 1017.6